Regional Weather Roundup
Issued by NWS

Home | Current Version | Previous Version | Text Only | Print | Product List | Glossary Off
Versions: 1 2 3 4 5 6 7 8 9 10 11 12 13 14 15 16 17 18 19 20 21 22 23 24 25 26 27 28 29 30 31 32 33 34 35 36 37 38 39 40 41 42 43 44 45 46 47 48 49 50

000
ASUS43 KFSD 051410
RWRSD

WEATHER ROUNDUP FOR SOUTH DAKOTA
NATIONAL WEATHER SERVICE SIOUX FALLS SD
900 AM CDT SUN JUL 05 2015

NOTE: "FAIR" INDICATES FEW OR NO CLOUDS BELOW 12,000 FEET WITH NO
SIGNIFICANT WEATHER AND/OR OBSTRUCTIONS TO VISIBILITY.


SDZ001>005-009-010-012>017-051500-
NORTHWEST AND NORTH CENTRAL SOUTH DAKOTA

CITY           SKY/WX    TMP DP  RH WIND       PRES   REMARKS
BUFFALO          N/A     66  61  84 NE17      29.76R
FAITH            N/A     71  62  73 N13       29.78R
MOBRIDGE       MOSUNNY   76  69  79 S9        29.71R
$$

SDZ012>016-024>037-041>051-057-063-072>074-051500-
SOUTHWEST AND SOUTH CENTRAL SOUTH DAKOTA

CITY           SKY/WX    TMP DP  RH WIND       PRES   REMARKS
RAPID CTY ARPT SUNNY     73  65  75 S3        29.75F
PIERRE         SUNNY     75  69  81 SE14      29.72S
CUSTER         SUNNY     74  57  55 W8        29.95S
ELLSWORTH AFB  SUNNY     75  65  72 S8        29.74F
PHILIP         SUNNY     76  65  68 S7        29.72F
PINE RIDGE     SUNNY     76  65  68 SW9       29.79F
SPEARFISH      FAIR      70  59  68 N15G29    29.89R
WINNER         FAIR      78  65  63 SE16      29.78R
$$

SDZ004>011-016>023-039-040-051500-
NORTHEAST SOUTH DAKOTA

CITY           SKY/WX    TMP DP  RH WIND       PRES   REMARKS
ABERDEEN       MOSUNNY   74  67  78 MISG      29.74F
WATERTOWN      SUNNY     73  64  73 S15G23    29.82F
BROOKINGS      PTSUNNY   70  64  83 S14       29.86S
SISSETON         N/A     77  67  71 S14       29.76F
$$

SDZ017-020-022-023-036>040-048>070-051500-
SOUTHEAST SOUTH DAKOTA

CITY           SKY/WX    TMP DP  RH WIND       PRES   REMARKS
SIOUX FALLS    PTSUNNY   69  66  90 E10       29.89F FOG
HURON          SUNNY     74  65  73 S21G29    29.78F
CHAMBERLAIN    SUNNY     73  67  81 SE13      29.78S
MITCHELL       SUNNY     75  66  73 SE16      29.83F
YANKTON        MOSUNNY   73  63  68 S13G23    29.85F
$$

ABBREVIATIONS USED IN REMARKS
   TC - TEMPERATURE IN CELSIUS
  WCI - WIND CHILL INDEX
   HX - HEAT INDEX
  VSB - VISIBILITY



USA.gov is the U.S. government's official web portal to all federal, state and local government web resources and services.